Location: Newark
(58.9986°N, 38.5006°E)
Time: 23:33:45
(UTC+00:00)

Vanguard 1 - All Passes

Search period start: 18 April 2021 00:00
Search period end: 28 April 2021 00:00
Orbit: 648 x 3834 km, 34.3° (Epoch: 18 April)

Date Brightness Start Highest point End Pass type
(mag) Time Alt. Az. Time Alt. Az. Time Alt. Az.
18 Apr - 09:25:16 10° SE 09:27:38 10° SE 09:30:07 10° ESE daylight
18 Apr - 11:33:19 10° SSW 11:46:33 26° SSE 12:02:57 10° ESE daylight
18 Apr - 13:51:17 10° SW 14:07:55 34° S 14:26:43 10° SE daylight
18 Apr - 16:12:57 10° WSW 16:29:52 29° SSW 16:46:32 10° SSE daylight
18 Apr - 18:40:19 10° WSW 18:50:07 15° SW 18:59:20 10° SSW visible
19 Apr - 09:40:02 10° SSE 09:47:13 14° SE 09:55:35 10° ESE daylight
19 Apr - 11:52:52 10° SSW 12:06:39 29° SSE 12:23:58 10° ESE daylight
19 Apr - 14:11:39 10° WSW 14:28:16 34° S 14:47:00 10° SE daylight
19 Apr - 16:34:01 10° WSW 16:50:01 26° SSW 17:05:48 10° SSE daylight
19 Apr - 19:06:05 10° WSW 19:09:44 11° SW 19:13:19 10° SW visible
20 Apr - 09:57:49 10° S 10:06:55 17° SE 10:18:09 10° ESE daylight
20 Apr - 12:12:42 10° SW 12:26:51 31° SSE 12:44:46 10° ESE daylight
20 Apr - 14:32:10 10° WSW 14:48:37 33° S 15:07:05 10° SE daylight
20 Apr - 16:55:22 10° WSW 17:10:04 22° SW 17:24:37 10° S daylight
21 Apr - 10:16:30 10° S 10:26:45 21° SE 10:39:55 10° ESE daylight
21 Apr - 12:32:44 10° SW 12:47:07 32° S 13:05:24 10° ESE daylight
21 Apr - 14:52:50 10° WSW 15:08:57 31° SSW 15:26:56 10° SE daylight
21 Apr - 17:17:12 10° WSW 17:30:01 19° SW 17:42:46 10° S visible
22 Apr - 10:35:43 10° SSW 10:46:42 24° SSE 11:01:15 10° ESE daylight
22 Apr - 12:52:56 10° SW 13:07:26 32° S 13:25:52 10° ESE daylight
22 Apr - 15:13:40 10° WSW 15:29:14 28° SSW 15:46:29 10° SSE daylight
22 Apr - 17:39:54 10° WSW 17:49:52 15° SW 17:59:51 10° SSW visible
23 Apr - 08:44:19 10° SE 08:48:00 11° SE 08:52:06 10° ESE daylight
23 Apr - 10:55:17 10° SSW 11:06:46 26° SSE 11:22:19 10° ESE daylight
23 Apr - 13:13:18 10° SW 13:27:47 32° S 13:46:09 10° SE daylight
23 Apr - 15:34:43 10° WSW 15:49:27 25° SSW 16:05:41 10° SSE daylight
23 Apr - 18:05:22 10° WSW 18:09:37 11° SW 18:13:53 10° SW visible
24 Apr - 09:01:14 10° SSE 09:07:42 14° SE 09:15:38 10° ESE daylight
24 Apr - 11:15:07 10° SSW 11:26:55 28° SSE 11:43:10 10° ESE daylight
24 Apr - 13:33:48 10° WSW 13:48:10 31° S 14:06:14 10° SE daylight
24 Apr - 15:56:05 10° WSW 16:09:37 22° SSW 16:24:23 10° S daylight
25 Apr - 09:19:43 10° S 09:27:31 18° SE 09:37:41 10° ESE daylight
25 Apr - 11:35:09 10° SW 11:47:10 29° SSE 12:03:50 10° ESE daylight
25 Apr - 13:54:28 10° WSW 14:08:32 29° SSW 14:26:03 10° SE daylight
25 Apr - 16:17:56 10° WSW 16:29:41 18° SW 16:42:21 10° S daylight
26 Apr - 09:38:51 10° S 09:47:27 20° SSE 09:59:09 10° ESE daylight
26 Apr - 11:55:21 10° SW 12:07:29 30° S 12:24:19 10° SE daylight
26 Apr - 14:15:18 10° WSW 14:28:52 26° SSW 14:45:32 10° SSE daylight
26 Apr - 16:40:47 10° WSW 16:49:40 14° SW 16:59:05 10° SSW daylight
27 Apr - 09:58:23 10° SSW 10:07:31 23° SSE 10:20:17 10° ESE daylight
27 Apr - 12:15:43 10° SW 12:27:51 29° S 12:44:35 10° SE daylight
27 Apr - 14:36:22 10° WSW 14:49:10 23° SSW 15:04:38 10° SSE daylight
27 Apr - 17:08:29 10° SW 17:09:34 10° SW 17:10:39 10° SW daylight
